Regional Weather Roundup
Issued by NWS Pendleton, OR

Home | Current Version | Previous Version | Text Only | Print | Product List | Glossary On
Versions: 1 2 3 4 5 6 7 8 9 10 11 12 13 14 15 16 17 18 19 20 21 22 23 24 25 26 27 28 29 30 31 32 33 34 35 36 37 38 39 40 41 42 43 44 45 46 47 48 49 50
000
ASUS46 KPDT 310910
RWRPDT
PENDLETON REGIONAL WEATHER ROUNDUP
NATIONAL WEATHER SERVICE PENDLETON OREGON
100 AM PST SAT JAN 31 2015

NOTE: FAIR INDICATES FEW OR NO CLOUDS BELOW 12,000 FEET WITH NO
SIGNIFICANT WEATHER AND/OR OBSTRUCTIONS TO VISIBILITY.

# INDICATES UNOFFICIAL STATION AND DATA

WAZ520-311010-
EAST SLOPES OF WASHINGTON CASCADES

CITY            SKY/WX      TMP DP  RH  WIND    PRES   REMARKS
#BUMPING DAM    N/A         27  N/A N/A S6      N/A
#CLE ELUM HS    N/A         29  28  96  NW1     30.16S
#CLE ELUM LAKE  N/A         27  26  96  CALM    30.29F
#CLIFFDEL 2NW   N/A         26  25  96  CALM    N/A
#EASTON DOT     N/A         28  27  96  CALM    N/A
#GLENWOOD       N/A         32  31  96  CALM    30.29F
#MANASTASH CYN  N/A         27  23  85  CALM    30.13S
#NELSON         N/A         30  29  96  CALM    30.31F
#NELSON 3SW     N/A         24  23  96  CALM    30.51F
#NILE           N/A         28  27  96  W1      29.54S
#PEOH POINT     N/A         37  26  64  W7      N/A
#RONALD 2NW     N/A         29  21  72  CALM    30.03F
#SNOWDEN        N/A         28  26  92  CALM    N/A
#SOUTH BLEWITT  N/A         28  26  92  CALM    N/A
#TEANAWAY 4NE   N/A         29  28  96  CALM    N/A
#TROUT LAKE 1NE N/A         31  30  96  CALM    30.30F
$$

WAZ521-311010-
SIMCOE HIGHLANDS

CITY            SKY/WX      TMP DP  RH  WIND    PRES   REMARKS
#BICKLETON HS   N/A         25  25  100 CALM    N/A
#SATUS PASS DOT N/A         26  25  96  CALM    N/A
#CENTERVILLE 4W N/A         32  31  96  N3      29.96F
#CENTERVILLE 1SWN/A         31  29  92  N3      30.28F
#GOLDENDALE     N/A         32  32  100 NW5     N/A
#GOLDENDALE 1NE N/A         32  29  89  SW3     N/A
#GOLDENDALE 1S  N/A         29  29  100 CALM    30.20F
#GOLDENDALE 5WNWN/A         31  30  96  W5      30.29F
#GOODNOE HILLS  N/A         35  30  82  W10     N/A
#LYLE 6NE       N/A         33  32  96  CALM    30.28F
$$

WAZ026-311010-
KITTITAS VALLEY

CITY            SKY/WX      TMP DP  RH  WIND    PRES   REMARKS
ELLENSBURG AP   CLOUDY      34  30  85  CALM    30.21F
#ELLENSBURG CWU N/A         32  30  92  W3      30.22F
#ELLENSBURG 3NE N/A         31  30  96  W1      30.21S
#ELLENSBURG 1E  N/A         31  28  88  CALM    N/A
#KITTITAS 4N    N/A         32  29  89  CALM    28.51F
#KITTITAS 3S    N/A         33  31  92  CALM    30.27S
#THORP 6N       N/A         28  27  96  N7      30.30F
$$

WAZ027-311010-
YAKIMA VALLEY

CITY            SKY/WX      TMP DP  RH  WIND    PRES   REMARKS
YAKIMA AIRPORT  CLOUDY      36  31  82  CALM    30.25F
YAKIMA-VAGABOND CLOUDY      33  32  96  S5      30.23F
#DONALD 2NE     N/A         34  30  85  CALM    29.10F
#MABTON         N/A         37  35  92  CALM    30.27F
#MOXEE 2E       N/A         34  31  89  CALM    30.22F
#NACHES 2SW     N/A         32  31  96  CALM    30.21F
#TERRACE HTS    N/A         33  32  96  CALM    30.27F
#TOPPENISH      N/A         36  33  89  CALM    30.21F
#WAPATO 4NE     N/A         34  30  85  CALM    29.10F
#WEST VALLEY    N/A         33  31  92  CALM    30.28F
#W YAKIMA       N/A         33  31  92  CALM    30.29F
#WHITE SWAN 5E  N/A         35  33  92  CALM    30.30F
#WILEY CITY 3W  N/A         31  25  78  CALM    30.27F
$$

WAZ028-311010-
LOWER COLUMBIA BASIN...WASHINGTON

CITY            SKY/WX      TMP DP  RH  WIND    PRES   REMARKS
PASCO           CLOUDY      37  34  89  SW7     30.30F
PROSSER AWOS    N/A         37  36  96  S5      30.30F
RICHLAND AWOS   CLOUDY      37  34  89  SW6     30.30F
#BASIN CITY 5SW N/A         36  35  96  S5      30.28F
#BENTON CITY    N/A         36  33  89  W7      30.21F
#CONNELL 5N     N/A         33  32  96  SE1     30.31S
#CONNELL 5NW    N/A         34  33  96  SW6     30.27S
#ELTOPIA 6NW    N/A         34  33  96  S6      29.23F
#KAHLOTUS       N/A         33  32  96  W7      30.31F
#KENNEWICK 3S   N/A         35  33  92  CALM    30.31F
#PATERSON       N/A         37  34  89  W1      30.29F
#PROSSER DOT    N/A         37  33  85  S5      N/A
#PROSSER        N/A         35  31  85  S3      30.30F
#SAGEMOOR 2W    N/A         36  34  92  S6      30.15F
#TOUCHET 2S     N/A         37  34  89  CALM    30.30F
#WEST PASCO     N/A         38  34  85  S1      30.27F
$$

WAZ029-311010-
FOOTHILLS OF THE BLUES...WASHINGTON

CITY            SKY/WX      TMP DP  RH  WIND    PRES   REMARKS
WALLA WALLA AP  CLOUDY      36  33  89  CALM    30.27S
#DAYTON SCHOOL  N/A         33  28  82  CALM    30.26R
#LOWDEN 2SE     N/A         37  34  89  CALM    30.27S
#PLEASANT VIEW 1N/A         31  30  96  S2      30.37S
#PRESCOTT       N/A         36  34  92  CALM    30.30S
#SUDBURY        N/A         40  N/A N/A CALM    N/A
#WHITMAN COLLEGEN/A         36  33  89  SW1     30.37S
#WAITSBURG 5S   N/A         32  31  96  SW2     30.42S
#WAITSBURG 8N   N/A         32  28  85  S7      30.09F
#WALLA WALLA 5E N/A         35  33  92  W1      N/A
#WALLA WALLA U  N/A         37  34  89  W1      30.32F
#WHITMAN MISSIONN/A         37  34  89  SW3     30.33S
$$

WAZ030-311010-
BLUE MOUNTAINS...WASHINGTON

CITY            SKY/WX      TMP DP  RH  WIND    PRES   REMARKS
#DIXIE 5SE      N/A         28  27  96  CALM    30.12R
#SKI BLUEWOOD   N/A         29  25  85  CALM    30.11F
$$

ORZ009-041-WAZ024-311010-
COLUMBIA RIVER GORGE

CITY            SKY/WX      TMP DP  RH  WIND    PRES   REMARKS
HOOD RIVER AP   CLOUDY      37  34  89  CALM    30.30F
THE DALLES AP   CLOUDY      39  34  82  W3      30.30F
#ARLINGTON AIRPON/A         35  34  96  SW2     30.02S
#CELILO DOT     N/A         40  31  70  W1      N/A
#LYLE           N/A         40  36  85  CALM    30.32F
#MARYHILL       N/A         36  33  89  CALM    N/A
#MOSIER 1S      N/A         36  30  79  CALM    30.29F
#MURDOCK        N/A         40  37  89  NW2     30.33F
#RUFUS DOT      N/A         40  30  67  W8      N/A

$$

ORZ510-311010-
NORTH CENTRAL OREGON

CITY            SKY/WX      TMP DP  RH  WIND    PRES   REMARKS
#CHENOWITH 1W   N/A         31  31  100 N3      N/A
#COW CYN RST AREN/A         32  32  100 SW5     N/A
#DUFUR 9E       N/A         31  31  100 SW2     30.35F
#GRASS VALLEY 1SN/A         33  32  96  SW5     30.32F
#KENT DOT       N/A         32  28  85  SE1     N/A
#MAUPIN SCHOOL  N/A         36  31  82  CALM    30.27S
#MORO SCHOOL    N/A         35  35  100 S2      30.23F
#SHANIKO 5WSW   N/A         31  28  88  S15     N/A    WCI 20
#SHANIKO 4NW    N/A         30  30  100 S10     30.18S
#TYGH VALLEY 2NEN/A         39  35  85  CALM    30.29F
#WAPANITIA AIRPON/A         31  29  92  CALM    30.32S
#WASCO DOT      N/A         36  32  85  CALM    N/A
#WASCO 5NE      N/A         33  32  96  CALM    30.30F
$$

ORZ511-311010-
CENTRAL OREGON

CITY            SKY/WX      TMP DP  RH  WIND    PRES   REMARKS
BEND AIRPORT    FRZFOG      30  30  100 CALM    30.24S VSB 1/4
MADRAS AIRPORT  N/A         32  32  100 SW7     30.26F
PRINEVILLE AP   CLOUDY      32  32  100 SE5     30.23F
REDMOND AIRPORT CLOUDY      32  31  96  E5      30.23F
#BEND 1SW       N/A         29  28  96  W2      N/A
#BEND-AWBREY    N/A         28  28  100 S1      30.30F
#BEND-KIM LN    N/A         28  26  92  CALM    30.19S
#CROOKED RVR RANN/A         34  32  92  S3      30.32F
#CULVER         N/A         31  28  88  CALM    30.19F
#LAKE BILLY CHINN/A         35  28  75  S3      30.30F
#POWELL BUTTE   N/A         31  28  88  W2      29.83F
#PRINEVILLE 3N  N/A         34  33  96  SE3     30.26F
#WARM SPRINGS   N/A         40  35  82  NW1     30.22

$$


ORZ509-311010-
EAST SLOPES OF OREGON CASCADES

CITY            SKY/WX      TMP DP  RH  WIND    PRES   REMARKS
#BLUE BOX PASS  N/A         40  -10 11  CALM    N/A
#CAMP SHERMAN   N/A         32  29  89  CALM    30.35S
#LA PINE DOT    N/A         27  26  96  CALM    N/A
#LA PINE 4NW    N/A         28  25  88  CALM    30.36F
#LAVA BUTTE DOT N/A         25  24  96  CALM    N/A
#MT BACHELOR-MIDN/A         35  -12 12  NE13G25 N/A    WCI 26
#SISTERS AIRPOR N/A         30  30  100 CALM    30.17S
#SISTERS ODOT   N/A         31  N/A N/A CALM    N/A
#SISTERS 3N     N/A         31  27  85  CALM    30.22S
#SUNRIVER       N/A         29  28  96  S2      30.21S
#TUMALO 3W      N/A         30  29  96  E3      30.19F
#WANOGA BUTTE D N/A         35  17  47  NE1     N/A

$$

ORZ044-311010-
LOWER COLUMBIA BASIN...OREGON

CITY            SKY/WX      TMP DP  RH  WIND    PRES   REMARKS
HERMISTON       CLOUDY      37  34  89  S3      30.28F
#BOARDMAN SCHOOLN/A         38  34  85  CALM    30.30F
#BOARDMAN 8SW   N/A         37  35  92  N2      30.29F
#ECHO 8SW       N/A         37  37  100 CALM    30.25F
#IONE SCHOOL    N/A         35  24  64  CALM    30.25F
#IRRIGON 4NW    N/A         38  38  100 S1      N/A
#UMATILLA SCHOOLN/A         35  35  100 CALM    30.34F
#UMATILLA       N/A         39  33  79  CALM    30.26F
$$

ORZ507-311010-
NORTHERN FOOTHILLS OF THE BLUES

CITY            SKY/WX      TMP DP  RH  WIND    PRES   REMARKS
PENDLETON AIRPT CLOUDY      34  32  92  W3      30.24F
#ADAMS 3WNW     N/A         33  31  92  SW2     30.31F
#ATHENA         N/A         32  30  92  SW5     30.33F
#CAYUSE         N/A         33  31  92  CALM    30.30F
#HELIX SCHOOL   N/A         33  32  96  SW7     30.30F
#HELIX 3N       N/A         32  31  96  SW12    30.18F WCI 23
#HELIX 6SW      N/A         33  31  92  SW6     30.22F
#HOLDMAN 5SE    N/A         35  33  92  W2      30.24F
#HOLDMAN 6E     N/A         32  31  96  N5      30.11F
#M-F FERNDALE   N/A         36  32  85  CALM    30.27S
#M-F GROVE ELEM N/A         36  30  79  CALM    30.25S
#M-FREEWATER 5SEN/A         34  31  89  CALM    30.24S
#PENDLETON DNTN N/A         37  30  75  CALM    29.05F
#PDT AQUATIC CTRN/A         37  33  85  CALM    30.25F
#PENDLETON 5NE  N/A         34  32  92  CALM    30.20F
#PDT SUNRIDGE   N/A         35  32  89  CALM    30.27F
#PENDLETON 7NW  N/A         36  32  85  SW1     27.20
#TUTUILLA       N/A         35  32  89  S2      30.29F
#UMAPINE 2E     N/A         37  34  89  SW1     30.26S
#WESTON SCHOOL  N/A         31  28  88  NW8     30.20F

$$

ORZ508-311010-
SOUTHERN FOOTHILLS OF THE BLUES

CITY            SKY/WX      TMP DP  RH  WIND    PRES   REMARKS
LEXINGTON       CLOUDY      36  36  100 CALM    30.25F
#AJAX           N/A         35  30  82  S8      30.14F
#CONDON SCHOOL  N/A         32  31  96  CALM    30.14F
#CONDON 5W      N/A         30  29  96  CALM    30.14F
#FOSSIL SCHOOL  N/A         31  28  88  CALM    30.17F
#HEPPNER EOC    N/A         32  30  92  CALM    30.25F
#HEPPNER 4NE    N/A         30  29  96  CALM    30.29F
#LEXINGTON 2SE  N/A         37  34  89  CALM    30.20F
#MIKKALO        N/A         33  32  96  CALM    30.23F
#OLEX 4N        N/A         34  33  96  W1      30.25F
#RUGGS 5NE      N/A         29  24  81  CALM    30.36R
#RUGGS 2SW      N/A         27  26  96  NE5     30.32F

$$

ORZ502-503-311010-
BLUE MOUNTAINS

CITY            SKY/WX      TMP DP  RH  WIND    PRES   REMARKS
MEACHAM         CLEAR       22  18  84  CALM    30.16F
#BATTLE MTN DOT N/A         27  26  96  S6      N/A
#HARDMAN 10S    N/A         26  25  96  CALM    30.43F
#HEPPNER 15SE   N/A         29  26  88  CALM    30.07F
#LADD CYN SMT   N/A         25  21  84  N3      N/A
#LADD CREEK ODOTN/A         27  25  92  SW1     N/A
#LONG CREEK HS  N/A         27  27  100 CALM    30.17F
#N POWDER DOT   N/A         21  20  96  W3      N/A
#PIKES PEAK     N/A         31  30  96  CALM    27.99S
#TOLLGATE       N/A         30  22  72  CALM    30.04F
#TROY SCHOOL    N/A         37  33  85  CALM    30.15F
#UKIAH          N/A         29  27  92  CALM    30.39F
#WESTON 4E      N/A         29  28  96  W3      30.26F
$$

ORZ505-311010-
JOHN DAY BASIN

CITY            SKY/WX      TMP DP  RH  WIND    PRES   REMARKS
JOHN DAY        CLOUDY      32  31  96  CALM    30.24R
#JOHN DAY KJDY  N/A         36  26  67  NE1     30.20F
#DAYVILLE SCHOOLN/A         37  31  79  CALM    30.22S
#MITCHELL       N/A         28  28  100 CALM    30.36F
#MONUMENT HS    N/A         37  30  75  SW1     30.26F
#MT. VERNON 5SE N/A         29  28  96  CALM    30.16F
#WINLOCK        N/A         32  30  92  W3      30.29F
$$

ORZ506-311010-
OCHOCO AND JOHN DAY HIGHLANDS

CITY            SKY/WX      TMP DP  RH  WIND    PRES   REMARKS
#BUCK CREEK DOT N/A         30  30  100 W7      N/A
#HORSE RIDGE DO N/A         19  17  92  CALM    N/A
#KEYES SMT DOT  N/A         23  21  92  SE3     N/A
#PAULINA SCHOOL N/A         50  35  56  CALM    30.16F
#PINE MTN OBS   N/A         36  18  47  CALM    N/A
#PRAIRIE CITY   N/A         27  23  85  SE2     30.43F
#SENECA         N/A         23  N/A N/A CALM    N/A
#SENECA 9NW     N/A         19  18  96  CALM    30.32S
$$

ORZ049-311010-
GRANDE RONDE VALLEY

CITY            SKY/WX      TMP DP  RH  WIND    PRES   REMARKS
LA GRANDE       CLEAR       25  18  74  CALM    30.17F
#COVE           N/A         25  20  81  CALM    30.03S
#COVE SCHOOL    N/A         27  25  92  CALM    30.14F
#COVE 6NW       N/A         23  20  88  CALM    30.36F
#ELGIN 3N       N/A         24  16  71  CALM    29.99F
#ELGIN 1E       N/A         28  24  85  CALM    N/A
#IMBLER SCHOOL  N/A         27  24  88  CALM    30.13F
#ISLAND CITY 4N N/A         36  35  96  CALM    30.21F
#LADD CYN DOT   N/A         29  25  85  SE7     N/A
#UNION 1S       N/A         26  23  88  CALM    30.22F
$$

ORZ050-311010-
WALLOWA COUNTY

CITY            SKY/WX      TMP DP  RH  WIND    PRES   REMARKS
#ENTERPRISE AP  N/A         28  21  75  CALM    30.09S
#ENTERPRISE HS  N/A         25  22  88  CALM    30.16F
#IMNAHA SCHOOL  N/A         36  32  85  S2      30.21F
#IMNAHA 10S     N/A         25  22  88  SW5     30.17F
#JOSEPH 3N      N/A         23  17  77  CALM    30.16F
#JOSEPH 3W      N/A         29  14  53  SW2     29.95F
#LOSTINE        N/A         25  22  88  CALM    30.09F
#MT HOWARD 8000 N/A         29   3  32  W7      30.09F
#PROMISE 1S     N/A         26  25  96  CALM    30.37F
#SHEEP RDG 7000 N/A         33   1  25  CALM    30.18F
#WALLOWA SCHOOL N/A         23  22  96  CALM    31.30F



$$



USA.gov is the U.S. government's official web portal to all federal, state and local government web resources and services.